Regional Weather Roundup
Issued by NWS

Home | Current Version | Previous Version | Text Only | Print | Product List | Glossary On
Versions: 1 2 3 4 5 6 7 8 9 10 11 12 13 14 15 16 17 18 19 20 21 22 23 24 25 26 27 28 29 30 31 32 33 34 35 36 37 38 39 40 41 42 43 44 45 46 47 48 49 50
300
ASUS43 KDMX 200706
RWRIA

WEATHER ROUNDUP FOR IOWA
NATIONAL WEATHER SERVICE DES MOINES IA
100 AM CST SAT JAN 20 2018

NOTE: "FAIR" INDICATES FEW OR NO CLOUDS BELOW 12,000 FEET WITH NO
SIGNIFICANT WEATHER AND/OR OBSTRUCTIONS TO VISIBILITY.

* - THESE STATIONS ARE NOT NWS STATIONS...THUS NOT UNDER NWS
QUALITY CONTROL.  THEY ALSO DO NOT REPORT WEATHER SUCH
AS PRECIPITATION OR FOG.

IAZ001>003-012>014-020>022-031>034-043>046-200800-
   NORTHWEST IOWA

CITY           SKY/WX    TMP DP  RH WIND       PRES   REMARKS
CARROLL *      CLOUDY    32  28  86 CALM      29.75F
CHEROKEE *     CLOUDY    27  27  99 CALM      29.76S
DENISON *      CLOUDY    32  28  86 SE3       29.77F
LE MARS *      CLOUDY    28  27  93 CALM      29.76S
ORANGE CITY *  CLOUDY    37  34  87 NE3       29.75S
SHELDON *      CLOUDY    28  28 100 N5        29.74S WCI  23
SIOUX CITY     CLOUDY    30  29  96 CALM      29.77S
SPENCER        PTCLDY    30  27  88 W6        29.75S WCI  24
STORM LAKE *   CLOUDY    32  30  93 NW8       29.75R WCI  25
$$

IAZ055>058-069>071-079>083-090>094-200800-
   SOUTHWEST IOWA

CITY           SKY/WX    TMP DP  RH WIND       PRES   REMARKS
ATLANTIC *     CLOUDY    28  28 100 SW3       29.78S
AUDUBON *      CLOUDY    30  27  86 CALM      29.78S
CLARINDA *     CLOUDY    27  27 100 CALM      29.81
COUNCIL BLFS * CLOUDY    36  30  80 CALM      29.76F
CRESTON *      CLOUDY    32  28  86 SW8       29.79S WCI  25
HARLAN  *      CLOUDY    28  28 100 CALM      29.80S
LAMONI         CLOUDY    33  25  72 S9        29.80R WCI  25
RED OAK *      CLOUDY    27  27 100 CALM      29.79S
SHENANDOAH *   CLOUDY    28  27  93 CALM      29.79F
$$

IAZ047>049-059>061-072>074-084-200800-
   CENTRAL IOWA

CITY           SKY/WX    TMP DP  RH WIND       PRES   REMARKS
AMES           PTCLDY    30  29  96 S5        29.77R WCI  25
ANKENY *       PTCLDY    36  27  69 CALM      29.79S
BOONE *        CLOUDY    34  30  86 SW7       29.76S WCI  28
CHARITON *     CLOUDY    34  28  80 SW7       29.79S WCI  28
DES MOINES     PTCLDY    33  26  75 SW6       29.78S WCI  28
GRINNELL*      CLOUDY    34  28  80 SW9       29.78S WCI  26
KNOXVILLE *    CLOUDY    36  27  69 SW8       29.78R WCI  29
MARSHALLTOWN   CLOUDY    31  28  89 W7        29.77R WCI  24
NEWTON *       CLOUDY    36  28  75 SW8       29.78S WCI  29
PELLA *        CLOUDY    36  27  72 SW5       29.80R WCI  32
PERRY *          N/A     31  28  88 W5        29.77S WCI  27
$$

IAZ004>006-015-016-023>025-035-036-200800-
   NORTH CENTRAL IOWA

CITY           SKY/WX    TMP DP  RH WIND       PRES   REMARKS
ALGONA *       CLOUDY    34 N/A N/A NW7       29.75R WCI  28
CLARION *      CLOUDY    30  30 100 CALM      29.75S
ESTHERVILLE    CLOUDY    32  29  88 NW7       29.74S WCI  26
FORT DODGE *   CLOUDY    31  28  89 CALM      29.76S
MASON CITY     CLOUDY    30  28  92 W5        29.75R WCI  25
FOREST CITY *    N/A     32  32 100 CALM      29.74R
WEBSTER CITY * CLOUDY    32  30  93 SW9       29.73F WCI  24
IOWA FALLS *     N/A     33  30  91 SW7       29.76S WCI  26
$$

IAZ007>011-017>019-026>030-037>042-050>054-066-200800-
   NORTHEAST IOWA

CITY           SKY/WX    TMP DP  RH WIND       PRES   REMARKS
CEDAR RAPIDS     N/A     35  28  75 SW12      29.76S WCI  27
CHARLES CITY *   N/A     32  32 100 W6        29.74S WCI  26
CLINTON *        N/A     35  29  78 SW10      29.80R WCI  27
DECORAH *        N/A     34  32  93 VRB3      29.72R
DUBUQUE          N/A     32  26  78 S6        29.75R WCI  26
MONTICELLO *     N/A     34  28  80 CALM      29.76S
OELWEIN *        N/A     32  32 100 SW7       29.74R WCI  26
WATERLOO         N/A     31  27  85 SW7       29.75R WCI  24
$$

IAZ064-065-067-068-078-200800-
   EAST CENTRAL IOWA

CITY           SKY/WX    TMP DP  RH WIND       PRES   REMARKS
DAVENPORT        N/A     39  28  64 SW10      29.81S WCI  32
IOWA CITY        N/A     36  27  69 CALM      29.80S
MT. PLEASANT * CLOUDY    36  28  75 SW9       29.83S WCI  29
MUSCATINE *      N/A     37  28  70 S7        29.82S WCI  32
QUAD CITIES      N/A     40  29  64 SW10      29.80S WCI  33
$$

IAZ062-063-075>077-085>089-095>099-200800-
   SOUTHEAST IOWA

CITY           SKY/WX    TMP DP  RH WIND       PRES   REMARKS
BURLINGTON     PTCLDY    37  28  70 SW12      29.83S WCI  29
FAIRFIELD *    CLOUDY    37  28  70 SW9       29.81S WCI  31
FORT MADISON * MOCLDY    39  28  65 SW8       29.85R WCI  34
KEOKUK *       PTCLDY    37  28  70 S8        29.85R WCI  31
OSKALOOSA *      N/A     34  29  82 SW8       29.80S WCI  27
OTTUMWA        CLOUDY    38  27  64 SW9       29.80S WCI  31
WASHINGTON *   CLOUDY    39  30  70 SW13      29.81S WCI  32
$$

ABBREVIATIONS USED IN REMARKS
   TC - TEMPERATURES IN CELSIUS
  WCI - WIND CHILL INDEX
   HX - HEAT INDEX
  VSB - VISIBILITY
$$





USA.gov is the U.S. government's official web portal to all federal, state and local government web resources and services.